• In Belgium
  • List of Countries
  • For 7 days
  • Water Temperature
  • Satellite Maps
  • Weather Map
  • Weather Widgets
  • user-avatar
    Login

    Hourly Weather Ansembourg

    Today, 21 May, Monday

    Time Temperature Precipitation Wind Pressure Humidity
    00:00 +12°C° 0 mm 4 mps 735 mmHg 90%
    01:00 +12°C° 0.2 mm 4 mps 734 mmHg 90%
    02:00 +11°C° 0.2 mm 4 mps 734 mmHg 91%
    03:00 +11°C° 0.2 mm 4 mps 734 mmHg 91%
    04:00 +12°C° 0 mm 4 mps 734 mmHg 90%
    05:00 +12°C° 0 mm 4 mps 734 mmHg 89%
    06:00 +13°C° 0 mm 4 mps 734 mmHg 88%
    07:00 +14°C° 0 mm 4 mps 734 mmHg 83%
    08:00 +17°C° 0 mm 4 mps 734 mmHg 79%
    09:00 +18°C° 0 mm 4 mps 734 mmHg 74%
    10:00 +19°C° 0.2 mm 4 mps 733 mmHg 72%
    11:00 +20°C° 0.2 mm 3 mps 733 mmHg 70%
    12:00 +21°C° 0.2 mm 3 mps 733 mmHg 69%
    13:00 +21°C° 0.6 mm 3 mps 732 mmHg 70%
    14:00 +21°C° 0.6 mm 3 mps 732 mmHg 72%
    15:00 +21°C° 0.6 mm 2 mps 732 mmHg 73%
    16:00 +20°C° 0.4 mm 2 mps 732 mmHg 77%
    17:00 +21°C° 0.4 mm 1 mps 731 mmHg 80%
    18:00 +20°C° 0.4 mm 1 mps 731 mmHg 84%
    19:00 +18°C° 0 mm 1 mps 731 mmHg 86%
    20:00 +16°C° 0 mm 1 mps 731 mmHg 87%
    21:00 +13°C° 0 mm 0 mps 731 mmHg 89%
    22:00 +13°C° 0 mm 0 mps 731 mmHg 89%
    23:00 +12°C° 0 mm 0 mps 731 mmHg 90%

    Tomorrow, 22 May, Tuesday

    Time Temperature Precipitation Wind Pressure Humidity
    00:00 +12°C° 0 mm 0 mps 731 mmHg 90%
    01:00 +12°C° 0 mm 0 mps 731 mmHg 90%
    02:00 +11°C° 0 mm 0 mps 731 mmHg 91%
    03:00 +11°C° 0 mm 0 mps 731 mmHg 91%
    04:00 +12°C° 0 mm 0 mps 731 mmHg 90%
    05:00 +13°C° 0 mm 0 mps 731 mmHg 90%
    06:00 +15°C° 0 mm 0 mps 732 mmHg 89%
    07:00 +16°C° 0 mm 0 mps 732 mmHg 83%
    08:00 +20°C° 0 mm 1 mps 732 mmHg 78%
    09:00 +21°C° 0 mm 1 mps 732 mmHg 72%
    10:00 +22°C° 0.3 mm 1 mps 732 mmHg 71%
    11:00 +21°C° 0.3 mm 2 mps 732 mmHg 69%
    12:00 +23°C° 0.3 mm 2 mps 732 mmHg 68%
    13:00 +23°C° 0.4 mm 2 mps 732 mmHg 69%
    14:00 +23°C° 0.4 mm 2 mps 732 mmHg 71%
    15:00 +23°C° 0.4 mm 2 mps 732 mmHg 72%
    16:00 +22°C° 0.3 mm 1 mps 732 mmHg 76%
    17:00 +21°C° 0.3 mm 1 mps 732 mmHg 81%
    18:00 +20°C° 0.3 mm 1 mps 732 mmHg 85%
    19:00 +19°C° 0.3 mm 1 mps 732 mmHg 87%
    20:00 +16°C° 0.3 mm 1 mps 733 mmHg 88%
    21:00 +14°C° 0.3 mm 0 mps 733 mmHg 90%
    22:00 +13°C° 0.2 mm 0 mps 733 mmHg 91%
    23:00 +13°C° 0.2 mm 0 mps 733 mmHg 91%

    Day after tomorrow, 23 May, Wednesday

    Time Temperature Precipitation Wind Pressure Humidity
    00:00 +12°C° 0.2 mm 0 mps 733 mmHg 91%
    01:00 +12°C° 0 mm 0 mps 733 mmHg 92%
    02:00 +12°C° 0 mm 0 mps 734 mmHg 92%
    03:00 +11°C° 0 mm 0 mps 734 mmHg 92%
    04:00 +13°C° 0 mm 0 mps 734 mmHg 91%
    05:00 +14°C° 0 mm 0 mps 735 mmHg 91%
    06:00 +15°C° 0 mm 0 mps 735 mmHg 90%
    07:00 +16°C° 0.3 mm 0 mps 735 mmHg 86%
    08:00 +18°C° 0.3 mm 0 mps 736 mmHg 82%
    09:00 +21°C° 0.3 mm 1 mps 736 mmHg 79%
    10:00 +22°C° 0.4 mm 1 mps 736 mmHg 73%
    11:00 +23°C° 0.4 mm 1 mps 736 mmHg 68%
    12:00 +24°C° 0.4 mm 1 mps 736 mmHg 62%
    13:00 +24°C° 0.5 mm 1 mps 736 mmHg 65%
    14:00 +24°C° 0.5 mm 1 mps 736 mmHg 69%
    15:00 +23°C° 0.5 mm 1 mps 735 mmHg 72%
    16:00 +21°C° 0.4 mm 2 mps 735 mmHg 77%
    17:00 +20°C° 0.4 mm 2 mps 735 mmHg 82%
    18:00 +19°C° 0.4 mm 2 mps 735 mmHg 86%
    19:00 +18°C° 0.4 mm 2 mps 736 mmHg 89%
    20:00 +17°C° 0.4 mm 2 mps 736 mmHg 91%
    21:00 +16°C° 0.4 mm 3 mps 736 mmHg 94%
    22:00 +14°C° 0 mm 3 mps 736 mmHg 94%
    23:00 +14°C° 0 mm 3 mps 736 mmHg 95%

    24 May, Thursday

    Time Temperature Precipitation Wind Pressure Humidity
    00:00 +13°C° 0 mm 3 mps 736 mmHg 96%
    01:00 +14°C° 0.2 mm 2 mps 736 mmHg 96%
    02:00 +14°C° 0.2 mm 2 mps 736 mmHg 96%
    03:00 +14°C° 0.2 mm 2 mps 736 mmHg 97%
    04:00 +14°C° 0.1 mm 2 mps 736 mmHg 96%
    05:00 +15°C° 0.1 mm 2 mps 736 mmHg 95%
    06:00 +14°C° 0.1 mm 3 mps 736 mmHg 95%
    07:00 +16°C° 0.2 mm 2 mps 736 mmHg 92%
    08:00 +17°C° 0.2 mm 2 mps 736 mmHg 90%
    09:00 +18°C° 0.2 mm 2 mps 736 mmHg 88%
    10:00 +19°C° 0.3 mm 2 mps 736 mmHg 86%
    11:00 +19°C° 0.3 mm 2 mps 736 mmHg 85%
    12:00 +20°C° 0.3 mm 2 mps 736 mmHg 84%
    13:00 +20°C° 0.6 mm 2 mps 735 mmHg 84%
    14:00 +20°C° 0.6 mm 2 mps 735 mmHg 84%
    15:00 +20°C° 0.6 mm 2 mps 735 mmHg 84%
    16:00 +20°C° 1 mm 2 mps 735 mmHg 86%
    17:00 +21°C° 1 mm 1 mps 735 mmHg 89%
    18:00 +20°C° 1 mm 1 mps 734 mmHg 91%
    19:00 +19°C° 0.3 mm 1 mps 735 mmHg 91%
    20:00 +18°C° 0.3 mm 1 mps 735 mmHg 92%
    21:00 +15°C° 0.3 mm 1 mps 735 mmHg 93%
    22:00 +15°C° 0 mm 1 mps 735 mmHg 93%
    23:00 +15°C° 0 mm 1 mps 735 mmHg 94%

    25 May, Friday

    Time Temperature Precipitation Wind Pressure Humidity
    00:00 +14°C° 0 mm 1 mps 734 mmHg 94%
    01:00 +14°C° 0 mm 1 mps 734 mmHg 94%
    02:00 +14°C° 0 mm 1 mps 734 mmHg 94%
    03:00 +13°C° 0 mm 1 mps 734 mmHg 95%
    04:00 +14°C° 0 mm 1 mps 735 mmHg 94%
    05:00 +15°C° 0 mm 1 mps 735 mmHg 93%
    06:00 +15°C° 0 mm 0 mps 735 mmHg 93%
    07:00 +19°C° 0.2 mm 1 mps 735 mmHg 88%
    08:00 +20°C° 0.2 mm 1 mps 735 mmHg 83%
    09:00 +22°C° 0.2 mm 1 mps 736 mmHg 79%
    10:00 +23°C° 0.4 mm 1 mps 736 mmHg 74%
    11:00 +24°C° 0.4 mm 1 mps 735 mmHg 70%
    12:00 +25°C° 0.4 mm 1 mps 735 mmHg 66%
    13:00 +25°C° 0.1 mm 1 mps 735 mmHg 65%
    14:00 +25°C° 0.1 mm 1 mps 735 mmHg 64%
    15:00 +25°C° 0.1 mm 1 mps 735 mmHg 63%
    16:00 +24°C° 0.2 mm 1 mps 735 mmHg 69%
    17:00 +23°C° 0.2 mm 1 mps 735 mmHg 75%
    18:00 +23°C° 0.2 mm 1 mps 735 mmHg 80%
    19:00 +21°C° 0 mm 1 mps 735 mmHg 83%
    20:00 +19°C° 0 mm 1 mps 735 mmHg 86%
    21:00 +15°C° 0 mm 0 mps 735 mmHg 89%
    22:00 +15°C° 0 mm 0 mps 735 mmHg 89%
    23:00 +16°C° 0 mm 1 mps 735 mmHg 90%

    26 May, Saturday

    Time Temperature Precipitation Wind Pressure Humidity
    00:00 +15°C° 0 mm 1 mps 735 mmHg 90%
    01:00 +15°C° 0 mm 1 mps 735 mmHg 91%
    02:00 +15°C° 0 mm 1 mps 735 mmHg 91%
    03:00 +14°C° 0 mm 1 mps 735 mmHg 91%
    04:00 +16°C° 0 mm 1 mps 736 mmHg 90%
    05:00 +18°C° 0 mm 1 mps 736 mmHg 89%
    06:00 +19°C° 0 mm 1 mps 736 mmHg 88%
    07:00 +21°C° 0 mm 1 mps 736 mmHg 82%
    08:00 +22°C° 0 mm 1 mps 737 mmHg 76%
    09:00 +24°C° 0 mm 1 mps 737 mmHg 70%
    10:00 +25°C° 0.1 mm 2 mps 737 mmHg 67%
    11:00 +26°C° 0.1 mm 2 mps 737 mmHg 63%
    12:00 +26°C° 0.1 mm 2 mps 737 mmHg 60%
    13:00 +26°C° 0.5 mm 2 mps 737 mmHg 61%
    14:00 +26°C° 0.5 mm 1 mps 736 mmHg 62%
    15:00 +26°C° 0.5 mm 1 mps 736 mmHg 64%
    16:00 +25°C° 0.3 mm 2 mps 736 mmHg 70%
    17:00 +24°C° 0.3 mm 2 mps 736 mmHg 75%
    18:00 +23°C° 0.3 mm 2 mps 736 mmHg 81%
    19:00 +21°C° 0.3 mm 2 mps 736 mmHg 84%
    20:00 +19°C° 0.3 mm 2 mps 736 mmHg 87%
    21:00 +18°C° 0.3 mm 2 mps 736 mmHg 89%
    22:00 +17°C° 0.4 mm 2 mps 736 mmHg 91%
    23:00 +17°C° 0.4 mm 2 mps 736 mmHg 92%
    Show more